Showing default

SNUSAT-2, 43782

Orbit data source: Space-Track

SNUSAT-2, 43782 is a payload satellite owned by SNU (KR) in SSO that was launched on Mon, 03 Dec 2018 UTC via an FALCON 9 launch vehicle from the Air Force Western Test Range (AFWTR). Payload-class satellites include a variety of spacecraft equipped with specific instruments for various scientific and technological missions. These include communications satellites like Starlink; space stations such as the ISS; scientific satellites like the Hubble; Earth observation satellites from companies like Planet Labs, Umbra, and HawkEye 360; GPS; miniature CubeSats for education and research; and military/defense satellites.

Loading next visibility...
Identifier
43782, 2018-099AA
Orbit
SSO
Last TLE update
13 hours ago
Origin
Manufacturer
SNU
Mission
Operational Amateur Technology
Bus & Motor
CUBESAT 3U, Unknown motor
Mass
4 kg wet, 4 kg dry
Launch date (UTC)
2018-12-03 (7 years ago)
Launch vehicle
FALCON 9
Launch site
Air Force Western Test Range (AFWTR)
Object type
Payload
Rocket body
Debris
Shape & HBR
Box, 0.3 m
Radar Cross Section
0.035 m², Small (<0.1 m²)

Expand to show TLE details & history

TLE from 13 hours ago
0 SNUSAT-2
1 43782U 18099AA  25181.87767730  .00005184  00000-0  28160-3 0  9991
2 43782  97.4582 236.3079 0013639  82.9729 277.3054 15.14868652359720
Epoch: 2025-06-30T21:03Z
TLE epoch observation values (Epoch: 2025-06-30T21:03:51.318Z)
Latitude
-0.00003°
Longitude
1.1629°
Altitude
523.275 km
Speed
7.602 km/s
True Right ascension
15h 45m 13s
True Declination
0° 00' 00"
Sunlit
Object was in full shadow at epoch
Visualization orbit readout
Latitude
30.31937°
Longitude
-2.67988°
Altitude
519.311 km
Speed
7.61 km/s
Apparent Right ascension
12h 52m 42s
Apparent Declination
-4° 29' 30"
Sunlit
Object is in daylight
Visualization observer readout
Local Sidereal Time
21:31:11
Azimuth
294.371° NW
Elevation
-32.538°
Doppler factor
1
Orbital elements
Apogee altitude
527.758 km
Perigee altitude
508.946 km
Semi-major axis
6,896.489 km
Eccentricity
0.00136
Inclination
97.4582°
RAAN
236.3079°
Arg. of periapsis
82.9729°
True anomaly
Unknown
Mean anomaly
277.3054°
Eccentric anomaly
Unknown
Mean motion
3.78967 °/min
Orbital period
95 mins
BSTAR
0.0002816
Loading maneuver chart data...
Loading SW <> Apogee altitude chart data...
Loading historical data...
Loading historical data...
Loading historical data...
Loading historical data...
Loading historical data...
Loading historical data...
Loading historical data...

SNUSAT-2 Visibility forecast

Observer location: undefined°, undefined°

Span
Click to sort rows by Start time (UTC) header in descending order
Start Az.
Max El. time (UTC)
Max El. Az.
Max El.
End time (UTC)
End Az.
6 mins2025-07-01 16:38:49.765Z6.308° NNE2025-07-01 16:41:49.765Z304.095° NW43.138°2025-07-01 16:44:49.765Z201.944° SSW
5 mins2025-07-02 03:19:49.765Z137.209° SSE2025-07-02 03:21:49.765Z81.54° E35.196°2025-07-02 03:24:49.765Z4.744° NNE
|